AirNav   Everest Fuels
 
 743 users online  

95GA McIntosh Field Airport
Whitesburg, Georgia, USA

GOING TO WHITESBURG?


FAA INFORMATION EFFECTIVE 08 SEPTEMBER 2022

Location

FAA Identifier: 95GA
Lat/Long: 33-27-21.4090N 084-56-34.7830W
33-27.356817N 084-56.579717W
33.4559469,-84.9429953
(estimated)
Elevation: 771 ft. / 235.0 m (surveyed)
Variation: 02W (1990)
From city: 3 miles SW of WHITESBURG, GA
Time zone: UTC -4 (UTC -5 during Standard Time)
Zip code: 30185

Airport Operations

Airport use: Private use. Permission required prior to landing
Activation date: 04/1993
Control tower: no
ARTCC: ATLANTA CENTER
FSS: MACON FLIGHT SERVICE STATION
Attendance: IREG
Wind indicator: yes
Segmented circle: no

Airport Communications

WX AWOS-3PT at CCO (12 nm SE): 118.975 (770-254-1617)
WX AWOS-3 at CTJ (15 nm NW): 118.175 (770-214-9667)
WX ASOS at FFC (19 nm E): 118.525 (770-487-1610)

Nearby radio navigation aids

VOR radial/distance  VOR name  Freq  Var
LGCr027/27.8LAGRANGE VORTAC115.6001E

 
NDB name  Hdg/Dist  Freq  Var  ID
CARROLLTON129/11.527804WGPQ --. .--. --.-
COWETA COUNTY319/16.623403WEQQ . --.- --.-
PECAT297/24.731605WFFC ..-. ..-. -.-.

Airport Services

Runway Information

Runway 4/22

Dimensions: 2480 x 50 ft. / 756 x 15 m
Surface: turf, in good condition
RUNWAY 4  RUNWAY 22
Traffic pattern: leftleft

Airport Ownership and Management from official FAA records

Ownership: Privately-owned
Owner: W. K. ZEIS, JR & D. M. GREENE
1656 N HIGHWAY 27
CARROLLTON, GA 30117-7506
Phone 770-834-4219
Manager: W. K. ZEIS, JR & D. M. GREENE
1656 N HIGHWAY 27
CARROLLTON, GA 30117-7506
Phone 770-834-4219

Additional Remarks

A52-04 04/22 TREES IN ALL QUADRANTS; HILLS ALONG EACH SIDE OF RY.
EXTENSIVE DEER ON AND INVOF ARPT.
POND WITH GEESE ADJACENT TO RW
REMOTE CONTROL AIRCRAFT PARK 1 MILE SW
FOR CD CTC ATLANTA APCH AT 678-364-6131.

Instrument Procedures

There are no published instrument procedures at 95GA.

Some nearby airports with instrument procedures:

KCCO - Newnan Coweta County Airport (12 nm SE)
KCTJ - West Georgia Regional Airport-O V Gray Field (15 nm NW)
KFFC - Atlanta Regional Airport-Falcon Field (19 nm E)
KPUJ - Paulding Northwest Atlanta Airport (27 nm N)
KLGC - LaGrange-Callaway Airport (28 nm S)
 
Loc | Ops | Rwys | IFR | FBO | Links
Com | Nav | Svcs | Stats | Notes
Area around 95GA (McIntosh Field Airport)
 
Road maps at: MapQuest Bing Google
 
Aerial photo
No photo
 
Sectional chart

 
Airport distance calculator
Flying to McIntosh Field Airport? Find the distance to fly.

From to 95GA

Sunrise and sunset
Times for 06-Oct-2022
 Local
(UTC-4)
 Zulu
(UTC)
Morning civil twilight07:1411:14
Sunrise07:3911:39
Sunset19:1723:17
Evening civil twilight19:4223:42

Current date and time
Zulu (UTC)  06-Oct-2022 04:03:13
Local (UTC-4)  06-Oct-2022 00:03:13
 
METAR
KCCO 
12nm SE 
060355Z AUTO 00000KT 10SM CLR 13/06 A3009 RMK AO2 T01300061
KCTJ 
15nm NW 
060335Z AUTO 00000KT 10SM CLR 09/07 A3013 RMK AO2 T00930070
KFFC 
20nm E 
060353Z AUTO 00000KT 10SM CLR 11/07 A3008 RMK AO2 SLP186 T01060072 $
TAF
KATL 
27nm NE 
060137Z 0602/0706 32004KT P6SM SKC FM061600 31007KT P6SM SKC FM070300 VRB03KT P6SM SKC
KFTY 
29nm NE 
051726Z 0518/0618 31007KT P6SM SKC FM060200 00000KT P6SM SKC FM061500 31007KT P6SM SKC
NOTAMs
Click for the latest NOTAMs
NOTAMs are issued by the DoD/FAA and will open in a separate window not controlled by AirNav.

 

 
 

Would you like to see your business listed on this page?

 If your business provides an interesting product or service to pilots, flight crews, aircraft, or users of the McIntosh Field Airport, you should consider listing it here.  To start the listing process, click on the button below
 
Add a business
 

Other Pages about McIntosh Field Airport

Update a link
 
Copyright © AirNav, LLC. All rights reserved. Privacy Policy  Contact